StarCraft 板


https://www.twitch.tv/sc2starleague http://www.azubu.tv/EN_SC2_Starleague https://www.youtube.com/watch?v=0J6oY768rUA
http://www.douyu.com/scboy 赛事资讯 : http://goo.gl/CCiV6R 赛制 : 小组Bo3双败淘汰 Group A Group B Round of 8 Zest 2-1 5-3 Bomber 0-0 0-0 Dark ┐ ┌ Group B 1st Trust 1-2 3-5 Stats 0-0 0-0 Group D 2nd ┴┐ ┌┴ Group C 2nd aLive 0-2 1-4 Dear 0-0 0-0 │ │ Dark 2-0 4-1 GuMiho 0-0 0-0 │ │ ├─┴─┤ Group C Group D │ │ Classic 0-0 0-0 Reality 0-0 0-0 │ │ Solar 0-0 0-0 Cure 0-0 0-0 Group C 1st ┬┘ └┬ Group D 1st ByuN 0-0 0-0 TY 0-0 0-0 Group B 2nd ┘ └ Zest Super 0-0 0-0 Patience0-0 0-0 ------------------------------------------------------------------------------- KT Rolster.Zest vALL 64.58% vT 85.71% vP 63.64% vZ 39.29% 1992-07-11 24 62-34 30-5 21-12 11-17 Last 10 : L L W L L L W W W W http://i.imgur.com/e4ANz8U.jpg KT Rolster.Trust vALL 39.29% vT 50.00% vP 57.14% vZ 23.08% 1995-04-12 21 11-17 4-4 4-3 3-10 Last 10 : L L L L L W W L W L http://i.imgur.com/7KO449L.jpg Afreeca Freecs.aLive vALL 58.70% vT 50.38% vP 54.79% vZ 74.16% 1992-11-16 23 172-121 66-65 40-33 66-23 Last 10 : L W L L L W W L W W http://i.imgur.com/trIow7e.jpg SK Telecom T1.Dark vALL 59.74% vT 59.26% vP 66.67% vZ 53.85% 1995-10-06 20 46-31 16-11 16-8 14-12 Last 10 : L W L W W L L L W L http://i.imgur.com/kKtTsqh.jpg ------------------------------------------------------------------------------- Match 1 Dark(Z) 2-0 Trust(P) Game 1: Dark(Z) > Trust(P) @ Dusk Towers Game 2: Dark(Z) > Trust(P) @ King Sejong Station Game 3: Dark(Z) Trust(P) @ Match 2 Zest(P) 2-0 aLive(T) Game 1: Zest(P) > aLive(T) @ Frozen Temple Game 2: Zest(P) > aLive(T) @ Frost Game 3: Zest(P) aLive(T) @ Match 3 Dark(Z) 2-1 Zest(P) Game 1: Dark(Z) < Zest(P) @ Frozen Temple Game 2: Dark(Z) > Zest(P) @ King Sejong Station Game 3: Dark(Z) > Zest(P) @ New Gettysburg ------------------------------------------------------------------------------- Match 4 Trust(P) 2-1 aLive(T) Game 1: Trust(P) > aLive(T) @ King Sejong Station Game 2: Trust(P) < aLive(T) @ Frozen Temple Game 3: Trust(P) > aLive(T) @ Dusk Towers Match 5 Zest(P) 1-1 Trust(P) Game 1: Zest(P) > Trust(P) @ Forzen Temple Game 2: Zest(P) < Trust(P) @ Dusk Towers Game 3: Zest(P) Trust(P) @ Frost 地图资讯: TvZ ZvP PvT T Z P Dusk Towers 286-254 229-263 224-261 198 339 143 Frost 207-225 303-312 247-219 131 225 226 Frozen Temple 132-112 100-110 89-105 72 136 76 King Sejong Station 272-232 309-340 218-212 117 278 245 Lerilak Crest 82-99 116-77 55-51 73 108 36 Orbital Shipyard 80-52 73-72 104-126 98 97 86 Rak'Shir 3-2 4-1 8-8 3 4 2 ------------------------------------------------------------------------------- 作者 JokerRF (RF) 看板 StarCraft 标题 [联赛] 2016 SSL Season 2 Ro16 Group A 时间 Thu Jul 14 16:42:41 2016 ─────────────────────────────────────── 虫族毁灭计划 (0/2) --



※ 发信站: 批踢踢实业坊(ptt.cc), 来自: 140.120.24.55
※ 文章网址: https://webptt.com/cn.aspx?n=bbs/StarCraft/M.1468485764.A.E4F.html ※ 编辑: JokerRF (140.120.24.55), 07/14/2016 16:43:06
1F:推 sing129: Z少成这样Dark就有机会连冠了 07/14 16:49
2F:推 hyk32166: 可是dark近况不是很好 07/14 17:02
3F:→ JokerRF: 今天还有Dreamhack等打到Stage 2在Po了~~~~ 07/14 17:04
4F:推 com214111: 今天DARK能不能晋级还真难说XD 07/14 17:04
5F:推 a34781261: 无法独立直播孙一锋 07/14 17:05
6F:推 APM99: 女主持好漂漂>//< 07/14 17:11
7F:推 elvis222: 无法完成独立直播... 07/14 17:12
8F:推 HornyHorng: trust ~ 07/14 17:16
9F:推 kgbrts: TRUST还在昏睡吗 07/14 17:16
10F:推 sing129: 为啥Z对空改强後反而一堆P喜欢空投裂光球了 07/14 17:17
11F:推 ace0824: 真是鸡 07/14 17:18
12F:推 APM99: ....PVZ今天目前胜率 0% 07/14 17:18
13F:→ JokerRF: 直接抓TIMING一波推死 07/14 17:19
14F:推 kgbrts: dark都不想热手了吗直接往死里打 07/14 17:24
15F:推 APM99: 呜呜 帮神族QQ 07/14 17:25
16F:推 com214111: Dark轻松虐 07/14 17:25
17F:推 ace0824: 太鸡了.... 07/14 17:25
18F:推 sing129: 这到底是P太烂还是Z太强 有点看不懂了 07/14 17:25
19F:推 HornyHorng: 好惨ww 07/14 17:25
20F:推 eternalviva: 这两场的时间加总有超过15分钟吗... 07/14 17:25
21F:→ kgbrts: 真是惨别人也想踢球阿 07/14 17:26
22F:→ JokerRF: Dark:抬下去 07/14 17:26
23F:推 bryant1228: Da rk节奏抓超好 07/14 17:27
24F:推 mcpsmcps: 寄人篱下f91 07/14 17:30
25F:推 kgbrts: 寄人篱下孙一峰XD 07/14 17:30
26F:推 elvis222: 房间名字就是寄人篱下xdddd 07/14 17:30
27F:推 kissufo999: 寄人篱下孙一峰 07/14 17:31
28F:→ elvis222: 把gif档了xddd 07/14 17:31
29F:推 jeffsu: dark这组敌人只有老僧吧 贾布哥打z也是悲剧 07/14 17:33
30F:推 kgbrts: 杭州网路有这麽悲剧阿 07/14 17:36
31F:推 kgbrts: 贾布哥居然二指禅对付少林老僧 07/14 17:39
32F:推 kgbrts: 老僧大吃一惊没有算到结果 07/14 17:42
33F:推 ace0824: 死了 07/14 17:42
34F:→ JokerRF: 完全没辙 07/14 17:42
35F:→ kgbrts: 今天难道又是一路2:0 07/14 17:43
36F:→ kyley: wait alives photo looks so young... 07/14 17:43
37F:推 ace0824: 这被杀惨了 07/14 17:47
38F:→ JokerRF: 枪兵:来 来 你来 07/14 17:49
39F:推 kgbrts: 老僧这盘不错啊加油 07/14 17:49
40F:推 ace0824: 透明人优势很大 07/14 17:49
41F:→ ace0824: 亏回去了 07/14 17:50
42F:推 tasin: Zest这操作风骚到人族会崩溃 07/14 17:51
43F:推 ace0824: 透明人这样优势还输..... 07/14 17:52
44F:→ JokerRF: 直接跳脸 一小时不到打完两个Bo3 07/14 17:53
45F:推 qqq87112: 贾布哥果断换家 07/14 17:53
46F:推 bustmante: Zest的PvT真的形如流水 07/14 17:53
47F:推 FANggot: 打得好快 07/14 17:53
48F:→ JokerRF: Dark这出线机会很大阿 07/14 17:54
49F:推 APM99: 希望Zest能救救今日PVZ胜率QQ 07/14 17:56
50F:推 CharcoalMoon: 右边的对战表有一个B组的打成D罗 07/14 18:04
51F:推 kgbrts: 贾布哥微微一笑 07/14 18:14
52F:推 ace0824: Dark亏爆了 07/14 18:15
53F:推 Rayio: 这大炮台太漂亮了 不用造几个兵就守住还多一堆农民 07/14 18:15
54F:推 kgbrts: 传闻贾布哥打Z就是一坨,黑暗不知道信不信这套说法 07/14 18:26
55F:推 kgbrts: 地刺还是很靠普的阿 07/14 18:29
56F:推 ace0824: Zest这封家亏了 07/14 18:30
57F:→ lovinlover: 地刺赚很大 07/14 18:31
58F:→ ace0824: 空投地刺阿XDDDD 07/14 18:31
59F:推 ace0824: 还不昇三本吗 07/14 18:34
60F:推 kgbrts: 神族地面如何对抗一大坨地刺orz 07/14 18:34
61F:推 ace0824: Zest没啥救了 07/14 18:38
62F:→ ace0824: Zest干嘛不采二矿 07/14 18:38
63F:→ ace0824: 看到大龙就GG了XDDDDD 07/14 18:40
64F:推 jeffsu: 贾布哥正常发挥 07/14 18:40
65F:推 FANggot: 好辛苦的一场 07/14 18:40
66F:推 APM99: Zest好强 完全没经济各种绕路也打了好久 07/14 18:40
67F:推 com214111: Dark差点倒 07/14 18:40
68F:→ jeffsu: 空投地刺乱太爽 07/14 18:40
69F:推 ace0824: 女王射程真的有差 07/14 18:48
70F:推 kgbrts: 黑暗的奇袭兵 07/14 18:49
71F:推 kgbrts: 教士骑脸 07/14 18:51
72F:推 zzro: EPIC.... 07/14 18:52
73F:推 ace0824: Dark好强 07/14 18:52
74F:推 bbbyy: 非过去被毒爆状光了!!? 07/14 18:52
75F:推 elvis222: 居然被炸了 07/14 18:53
76F:→ zzro: 应该是直接闪在毒爆上 不然没办法炸那麽多只 07/14 18:53
77F:→ lovinlover: 这奶得让人看不懂了 07/14 18:53
78F:推 kgbrts: 两人都没死,贾布这实力打Z居然不到四成 07/14 18:53
79F:→ ace0824: 虫族也能玩空接XDDD 07/14 18:54
80F:嘘 shulado: Zest这场操作有够烂 07/14 18:54
81F:推 semiacicada: Dark其实是T转Z吧 07/14 18:54
82F:推 com214111: Dark真强 07/14 18:54
83F:推 emilio0209: 贾布哥又凶多吉少了QQ 07/14 18:54
84F:推 bbbyy: Zest一脸无法接受的样子 07/14 18:55
85F:推 bustmante: 就看dark不爽 可惜zest 打Z不给力 07/14 18:55
86F:→ ace0824: 这个BO3是上届SSL跟GSL冠军正面对决阿 07/14 18:55
87F:推 jeffsu: 贾布哥打z本来就很弱 没啥意外吧== 07/14 18:55
88F:推 GianniC: dark我真的以为被教士a 死了 这怎麽救的 07/14 18:55
89F:推 CharcoalMoon: Dark回来了吗?! 07/14 18:55
90F:推 tasin: 还蛮精彩的 07/14 18:55
91F:推 Adonisy: 差点DARK就跪了 07/14 18:55
92F:推 purplecake: zest教士没分吧,不知道为什麽没有分矿去飞 07/14 18:56
93F:→ CharcoalMoon: 又在强行翻译XD 07/14 18:56
94F:→ bustmante: 就选人有一点优势而已 07/14 18:56
95F:推 b8944042: 灵魂翻译 07/14 18:56
96F:→ Adonisy: 又再强行乱翻译 XD 07/14 18:56
97F:→ GianniC: 我本来以为死定了 还好蟑螂及时 07/14 18:56
98F:推 APM99: Zest Q_____Q 07/14 18:56
99F:→ ace0824: 就Zest一堆教士飞三矿被毒爆炸光了 07/14 18:56
100F:→ hardyuse: Zest把PvZ当成PvT打了 虫族一堆单位可以打教士的 07/14 18:59
101F:推 GianniC: 教士有操作不是很怕少量毒爆 07/14 19:00
102F:→ hardyuse: 打T教士可以随便飘 打Z没飘好被炸被围就喷了 07/14 19:00
103F:推 kgbrts: 这衣服XD 07/14 19:01
104F:→ GianniC: 他有棱镜可以收 07/14 19:02
105F:推 cxzqwer: 现在ZvP没事要把毒爆蟑螂巢盖好然後看情况调出兵比例 07/14 19:02
106F:推 GianniC: 教士超恶质 07/14 19:06
107F:推 ace0824: 互野XDD 07/14 19:12
108F:→ ace0824: 透明人亏爆啦 07/14 19:12
109F:推 qoo74119: 真的!蟑螂巢时间要跳快点!不然教士难防 07/14 19:13
110F:推 bbbyy: 空头自爆球 07/14 19:13
111F:→ bbbyy: 妈的 老僧被炸惨了 07/14 19:14
112F:推 elvis222: 好赚 07/14 19:15
113F:→ JokerRF: 老僧不好打了阿 07/14 19:15
114F:推 ace0824: 快没农了 07/14 19:15
115F:推 cxzqwer: 妈啊... 07/14 19:16
116F:→ ace0824: 不过Trust的营运有点弱 07/14 19:16
117F:推 jeffsu: 这招太久没人用 但老僧也太惨了吧XDDDD 07/14 19:17
118F:推 cxzqwer: 这比以前运输机带2掠夺者还凶狠 07/14 19:18
119F:推 nbgfdew: 好虐....... 07/14 19:18
120F:推 wyiwyi: 好惨 07/14 19:18
121F:→ JokerRF: 裂光赚太大了 T根本没法暴兵 07/14 19:18
122F:→ hardyuse: 提速棱镜搭裂光球炸爽爽 07/14 19:19
123F:→ JokerRF: 老僧直接两矿一波 07/14 19:25
124F:→ JokerRF: 不妙阿 不过P没继续攀科技还有的打 07/14 19:29
125F:推 bbbyy: 老僧这场应该没机会了吧 三况没开起来 二况还被杀光 07/14 19:30
126F:→ JokerRF: 不朽教士追猎能打赢这组合就真的PIMBA 07/14 19:31
127F:推 kgbrts: 这两人打得这麽惨烈 07/14 19:31
128F:推 ace0824: 好惨烈 07/14 19:33
129F:推 bbbyy: 好僧这波也打得够凶猛 惨烈的一场 07/14 19:33
130F:推 jeffsu: 焦土战 07/14 19:33
131F:推 jeffsu: 两边40人口XDDDDDDDDDD 07/14 19:35
132F:推 kgbrts: 太铁血了这两人 07/14 19:35
133F:推 bbbyy: 好惨烈的一场阿XDDD 07/14 19:35
134F:推 ace0824: 透明人赢了 07/14 19:35
135F:推 APM99: aLive这稳赢局面怎麽打的那麽辛苦嘛 07/14 19:35
136F:推 ace0824: 透明人之死 07/14 19:44
137F:推 jeffsu: 被教士玩死了 07/14 19:44
138F:→ JokerRF: 跪了 07/14 19:44
139F:推 bbbyy: 还是被教士玩死了 真惨 07/14 19:45
140F:→ jeffsu: 贾布哥爽的要死 xdddd 07/14 19:45
141F:→ hardyuse: P只要出棱镜使徒要先赢50% 07/14 19:45
142F:→ hardyuse: 就 07/14 19:45
143F:推 teren: 又是这招玩死... 07/14 19:45
144F:推 austincold: 看到老僧的兵出门就知道老僧要输了 07/14 19:46
145F:推 Emerson158: 为何韩国美女看起来都一个样子... 07/14 19:47
146F:推 kgbrts: 看得要是不一样会被骂的阿,品管和生产线出问题 07/14 19:49
147F:→ qqq87112: 人种部相近 看起来都一样 看那外国人都长一样 07/14 19:51
148F:推 kgbrts: 当主播最惨的就是被排挤 07/14 20:00
149F:推 elvis222: 一家之主孙一峰 07/14 20:04
150F:推 GianniC: 神族内奸 zest 07/14 20:04
151F:→ JokerRF: 好很阿 这样打队友 07/14 20:07
152F:推 kgbrts: 辛苦打上来送头 07/14 20:08
153F:推 ace0824: 杀八农 07/14 20:13
154F:推 kgbrts: 难道是队内交流赛 07/14 20:14
155F:推 ace0824: 又互杀XD 07/14 20:16
156F:→ ace0824: 为啥不VS出个凤凰 07/14 20:17
157F:推 ace0824: Zest被干了XD 07/14 20:19
158F:推 jeffsu: 贾布哥大危机!!! 07/14 20:20
159F:推 qqq87112: 广告商 贾布哥做得好 07/14 20:20
160F:推 kgbrts: 果然都是套路下手这麽狠别人也无法说什麽XD 07/14 20:29
※ 编辑: JokerRF (220.133.162.192), 07/14/2016 20:32:04
161F:推 ace0824: 还是输了XD 07/14 20:31
162F:推 emilio0209: 贾布哥又强又帅 07/14 20:32
163F:推 GianniC: 果然是内奸 07/14 20:32
164F:→ JokerRF: 决赛前可能碰不到Z 嘎布哥爽翻天 07/14 20:33
165F:推 wyiwyi: 竟然折跃到二嫂....一定是故意的XD 07/14 20:35
166F:推 Zoro303: 请问有VOD吗?? 07/14 20:37
167F:推 shamus0309: 为什麽贾布死不了 07/14 21:18
168F:推 Dragon850425: 不好意思, 请问二嫂是指厦门孙一峰抖内的女主拨吗, 07/15 00:04
169F:→ Dragon850425: 只follow部份 07/15 00:04
170F:→ lovinlover: 是 07/15 09:38







like.gif 您可能会有兴趣的文章
icon.png[问题/行为] 猫晚上进房间会不会有憋尿问题
icon.pngRe: [闲聊] 选了错误的女孩成为魔法少女 XDDDDDDDDDD
icon.png[正妹] 瑞典 一张
icon.png[心得] EMS高领长版毛衣.墨小楼MC1002
icon.png[分享] 丹龙隔热纸GE55+33+22
icon.png[问题] 清洗洗衣机
icon.png[寻物] 窗台下的空间
icon.png[闲聊] 双极の女神1 木魔爵
icon.png[售车] 新竹 1997 march 1297cc 白色 四门
icon.png[讨论] 能从照片感受到摄影者心情吗
icon.png[狂贺] 贺贺贺贺 贺!岛村卯月!总选举NO.1
icon.png[难过] 羡慕白皮肤的女生
icon.png阅读文章
icon.png[黑特]
icon.png[问题] SBK S1安装於安全帽位置
icon.png[分享] 旧woo100绝版开箱!!
icon.pngRe: [无言] 关於小包卫生纸
icon.png[开箱] E5-2683V3 RX480Strix 快睿C1 简单测试
icon.png[心得] 苍の海贼龙 地狱 执行者16PT
icon.png[售车] 1999年Virage iO 1.8EXi
icon.png[心得] 挑战33 LV10 狮子座pt solo
icon.png[闲聊] 手把手教你不被桶之新手主购教学
icon.png[分享] Civic Type R 量产版官方照无预警流出
icon.png[售车] Golf 4 2.0 银色 自排
icon.png[出售] Graco提篮汽座(有底座)2000元诚可议
icon.png[问题] 请问补牙材质掉了还能再补吗?(台中半年内
icon.png[问题] 44th 单曲 生写竟然都给重复的啊啊!
icon.png[心得] 华南红卡/icash 核卡
icon.png[问题] 拔牙矫正这样正常吗
icon.png[赠送] 老莫高业 初业 102年版
icon.png[情报] 三大行动支付 本季掀战火
icon.png[宝宝] 博客来Amos水蜡笔5/1特价五折
icon.pngRe: [心得] 新鲜人一些面试分享
icon.png[心得] 苍の海贼龙 地狱 麒麟25PT
icon.pngRe: [闲聊] (君の名は。雷慎入) 君名二创漫画翻译
icon.pngRe: [闲聊] OGN中场影片:失踪人口局 (英文字幕)
icon.png[问题] 台湾大哥大4G讯号差
icon.png[出售] [全国]全新千寻侘草LED灯, 水草
伺服器连线错误,造成您的不便还请多多包涵!
「赞助商连结」






like.gif 您可能会有兴趣的文章
icon.png[问题/行为] 猫晚上进房间会不会有憋尿问题
icon.pngRe: [闲聊] 选了错误的女孩成为魔法少女 XDDDDDDDDDD
icon.png[正妹] 瑞典 一张
icon.png[心得] EMS高领长版毛衣.墨小楼MC1002
icon.png[分享] 丹龙隔热纸GE55+33+22
icon.png[问题] 清洗洗衣机
icon.png[寻物] 窗台下的空间
icon.png[闲聊] 双极の女神1 木魔爵
icon.png[售车] 新竹 1997 march 1297cc 白色 四门
icon.png[讨论] 能从照片感受到摄影者心情吗
icon.png[狂贺] 贺贺贺贺 贺!岛村卯月!总选举NO.1
icon.png[难过] 羡慕白皮肤的女生
icon.png阅读文章
icon.png[黑特]
icon.png[问题] SBK S1安装於安全帽位置
icon.png[分享] 旧woo100绝版开箱!!
icon.pngRe: [无言] 关於小包卫生纸
icon.png[开箱] E5-2683V3 RX480Strix 快睿C1 简单测试
icon.png[心得] 苍の海贼龙 地狱 执行者16PT
icon.png[售车] 1999年Virage iO 1.8EXi
icon.png[心得] 挑战33 LV10 狮子座pt solo
icon.png[闲聊] 手把手教你不被桶之新手主购教学
icon.png[分享] Civic Type R 量产版官方照无预警流出
icon.png[售车] Golf 4 2.0 银色 自排
icon.png[出售] Graco提篮汽座(有底座)2000元诚可议
icon.png[问题] 请问补牙材质掉了还能再补吗?(台中半年内
icon.png[问题] 44th 单曲 生写竟然都给重复的啊啊!
icon.png[心得] 华南红卡/icash 核卡
icon.png[问题] 拔牙矫正这样正常吗
icon.png[赠送] 老莫高业 初业 102年版
icon.png[情报] 三大行动支付 本季掀战火
icon.png[宝宝] 博客来Amos水蜡笔5/1特价五折
icon.pngRe: [心得] 新鲜人一些面试分享
icon.png[心得] 苍の海贼龙 地狱 麒麟25PT
icon.pngRe: [闲聊] (君の名は。雷慎入) 君名二创漫画翻译
icon.pngRe: [闲聊] OGN中场影片:失踪人口局 (英文字幕)
icon.png[问题] 台湾大哥大4G讯号差
icon.png[出售] [全国]全新千寻侘草LED灯, 水草

请输入看板名称,例如:e-shopping站内搜寻

TOP